This is the latest recevied weather packets stored in our database for station/object WA2TQI. If no packets are shown the sender has not sent any weather packets the latest 1 day(s).
| Time | Temp. | Humidity | Pressure | Rain* | Wind** | Luminosity | Snow |
|---|---|---|---|---|---|---|---|
| 1778043228 | 19.44° C | 82% | 1012 hPa | 0 mm | 3.13 m/s, 172° | - | - |
| 1778042925 | 19.44° C | 82% | 1012.1 hPa | 0 mm | 0.89 m/s, 194° | - | - |
| 1778042623 | 20° C | 81% | 1011.9 hPa | 0 mm | 1.79 m/s, 151° | - | - |
| 1778042319 | 19.44° C | 81% | 1012 hPa | 0 mm | 1.34 m/s, 161° | - | - |
| 1778042017 | 20° C | 81% | 1012 hPa | 0 mm | 1.79 m/s, 174° | - | - |
| 1778041715 | 20° C | 80% | 1012 hPa | 0 mm | 4.02 m/s, 136° | - | - |
| 1778041414 | 20° C | 80% | 1012.2 hPa | 0 mm | 0.89 m/s, 203° | - | - |
| 1778041112 | 19.44° C | 80% | 1012.1 hPa | 0 mm | 3.13 m/s, 169° | - | - |
| 1778040809 | 20° C | 80% | 1012.1 hPa | 0 mm | 1.79 m/s, 169° | - | - |
| 1778040506 | 20° C | 80% | 1012 hPa | 0 mm | 1.34 m/s, 194° | - | - |
| 1778040203 | 20° C | 79% | 1012.1 hPa | 0 mm | 1.79 m/s, 196° | - | - |
| 1778039899 | 20° C | 79% | 1012 hPa | 0 mm | 3.13 m/s, 198° | - | - |
| 1778039597 | 20° C | 78% | 1011.9 hPa | 0 mm | 2.24 m/s, 187° | - | - |
| 1778039294 | 20° C | 78% | 1012 hPa | 0 mm | 1.34 m/s, 177° | - | - |
| 1778038991 | 20° C | 78% | 1012.1 hPa | 0 mm | 2.24 m/s, 178° | - | - |
| 1778038688 | 20° C | 77% | 1011.8 hPa | 0 mm | 2.24 m/s, 248° | - | - |
| 1778038385 | 20° C | 77% | 1012.1 hPa | 0 mm | 1.34 m/s, 220° | - | - |
| 1778038082 | 20° C | 77% | 1011.9 hPa | 0 mm | 2.24 m/s, 240° | - | - |
| 1778037779 | 20° C | 77% | 1012 hPa | 0 mm | 0.89 m/s, 184° | - | - |
| 1778037475 | 20.56° C | 76% | 1012 hPa | 0 mm | 3.58 m/s, 191° | - | - |
| 1778037172 | 20.56° C | 75% | 1012 hPa | 0 mm | 1.79 m/s, 243° | - | - |
| 1778036871 | 20.56° C | 75% | 1012.1 hPa | 0 mm | 2.68 m/s, 235° | - | - |
| 1778036568 | 20.56° C | 76% | 1012.2 hPa | 0 mm | 0.45 m/s, 128° | - | - |
| 1778036265 | 20.56° C | 75% | 1012 hPa | 0 mm | 3.13 m/s, 122° | - | - |
| 1778035961 | 20.56° C | 74% | 1012 hPa | 0 mm | 2.24 m/s, 209° | - | - |
* Rain latest hour (hover to see other rain measurements)
** Current wind speed in m/s (hover to see current wind gust speed)